(386146) = 2007 TM188

Discovered at Kitt Peak on 2007-10-04 by Spacewatch.

Orbit

Orbit type: Main Belt

Note: WebGL enabled browser required.

epoch2023-09-13.0
epoch JD2460200.5
perihelion date2018-07-07.94136
perihelion JD2458307.44136
argument of perihelion (°)262.11101
ascending node (°)160.63075
inclination (°)0.76839
eccentricity0.2444512
perihelion distance (AU)2.2638698
Tisserand w.r.t. Jupiter3.2
ΔV w.r.t. Earth (km/sec)9.5
semimajor axis (AU)2.9963251
mean anomaly (°)359.73651
mean daily motion (°/day)0.19002930
aphelion distance (AU)3.729
period (years)5.19
P-vector [x]0.45797221
P-vector [y]0.82080366
P-vector [z]0.34138365
Q-vector [x]-0.88895538
Q-vector [y]0.42092988
Q-vector [z]0.18048924
absolute magnitude17.24
phase slope0.15
uncertainty0
referenceMPEC 2024-B63
observations used166
oppositions11
arc length (days)7745
first opposition used2002
last opposition used2024
residual rms (arc-secs)0.75
perturbers coarse indicatorM-v
perturbers precise indicator003Ek
first observation date used2002-11-05.0
last observation date used2024-01-19.0
computer nameMPCLINUX
JD of orbit computation2456732.286247
perihelion JD uncertainty (days)3.1501E-04
argument of perihelion uncertainty (°)3.3087E-04
ascending node uncertainty (°)3.2150E-04
inclination uncertainty (°)9.8468E-06
eccentricity uncertainty 4.9635E-08
perihelion distance uncertainty (AU)1.5909E-07
Minimum Orbit Intersection Distances (in AU)
for orbit epoch: 2460200.5, reference: E2024-B63
Mercury1.95422
Venus1.54229
Earth1.27605
Mars0.73912
Jupiter1.61095
Saturn6.24592
Uranus15.0935
Neptune26.8564

Observations

154 total observations over interval: 2002 11 05.24513 – 2024 01 19.113570
These data are available for download (format description).

